Location: Elstree
(51.6403°N, 0.2969°W)
Time: 07:53:32
(UTC+00:00)

Envisat - Pass Details

Date: 05 December 2022
Orbit: 763 x 765 km, 98.2° (Epoch: 04 February)

Event Time Altitude Azimuth Distance (km) Brightness Sun altitude
Rises 03:04:43 0° 25° (NNE) 3,247 6.7 -42.9°
Reaches altitude 10° 03:07:41 10° 43° (NE) 2,314 6.0 -42.4°
Enters shadow 03:08:35 13° 51° (NE) 2,086 5.8 -42.3°
